Regional Weather Roundup
Issued by NWS

Home | Current Version | Previous Version | Text Only | Print | Product List | Glossary On
Versions: 1 2 3 4 5 6 7 8 9 10 11 12 13 14 15 16 17 18 19 20 21 22 23 24 25 26 27 28 29 30 31 32 33 34 35 36 37 38 39 40 41 42 43 44 45 46 47 48 49 50
000
ASUS43 KLMK 302310
RWRKY
KENTUCKY REGIONAL WEATHER ROUNDUP
NATIONAL WEATHER SERVICE LOUISVILLE KY
700 PM EDT SUN APR 30 2017

NOTE "FAIR" INDICATES FEW OR NO CLOUDS BELOW 12,000 FEET
WITH NO SIGNIFICANT WEATHER AND/OR OBSTRUCTIONS TO VISIBILITY.

KYZ001>023-026-027-061>063-070>075-010000-
WESTERN AND SOUTH CENTRAL KENTUCKY

CITY           SKY/WX    TMP DP  RH WIND       PRES   REMARKS
PADUCAH        LGT RAIN  72  66  81 S7        29.64F
HENDERSON        N/A    N/A N/A N/A MISG        N/A
OWENSBORO      CLOUDY    74  64  71 S17G25    29.71F
HOPKINSVILLE   CLOUDY    70  63  78 S12G20    29.73F
BOWLING GREEN  CLOUDY    69  65  86 SW10      29.78F
GLASGOW        LGT RAIN  65  65 100 SE10      29.79F
$$

KYZ024-025-028>034-038-045-046-053-010000-
NORTH CENTRAL KENTUCKY

CITY           SKY/WX    TMP DP  RH WIND       PRES   REMARKS
LOUISVILLE/SDF LGT RAIN  75  67  76 SE23G29   29.75F
LOUISVILLE/LOU LGT RAIN  77  66  68 SE16G35   29.77F
FORT KNOX      CLOUDY    72  63  73 SE17G29   29.72F
$$

KYZ035>037-039>044-047>052-055>060-089>105-010000-
NORTHEAST KENTUCKY

CITY           SKY/WX    TMP DP  RH WIND       PRES   REMARKS
LEXINGTON      MOSUNNY   81  59  47 S16G24    29.86F
COVINGTON      CLOUDY    78  64  61 S14G28    29.80F
FRANKFORT      CLOUDY    81  60  48 S10G18    29.83S
$$

KYZ054-064>069-076>088-106>120-010000-
SOUTHEAST KENTUCKY

CITY           SKY/WX    TMP DP  RH WIND       PRES   REMARKS
JACKSON        CLOUDY    82  59  45 VRB6      29.93R
LONDON         PTSUNNY   81  55  40 S13G25    29.92F
SOMERSET       MOSUNNY   79  57  47 S13G25    29.91S
MIDDLESBORO    PTSUNNY   82  57  43 S6        29.96S
MONTICELLO     CLOUDY    79  61  53 SE14G25   29.91S
$$




USA.gov is the U.S. government's official web portal to all federal, state and local government web resources and services.